LPNTSAT-001 (IOD-1)

Last updated on Sat Sep 05 2026 00:03:20 GMT+0000 (Coordinated Universal Time)

1 68408U 26065A 26247.60276919 .00001417 00000+0 70965-4 0 9999 2 68408 97.3883 126.3962 0018100 87.6120 272.7187 15.18871421 24311
UTC large
Height (km)
Speed (km/s)
/
Latitude / Longitude
Inclination (degrees)
Orbital Period (minutes)
Azimuth
Elevation
Range (km)
Doppler Factor

Next 0 passes for location: London (51.5072 / 0.1276)

No passes found over London.
LPNTSAT-001 (IOD-1)